Weather Roundup
Issued by NWS Chicago, IL

Home | Current Version | Previous Version | Text Only | Print | Product List | Glossary Off
Versions: 1 2 3 4 5 6 7 8 9 10 11 12 13 14 15 16 17 18 19 20 21 22 23 24 25 26 27 28 29 30 31 32 33 34 35 36 37 38 39 40 41 42 43 44 45 46 47 48 49 50

000
NZUS59 KLOT 022103
HRRLOT

CHICAGO AREA WEATHER ROUNDUP
NATIONAL WEATHER SERVICE CHICAGO/ROMEOVILLE IL
300 PM CST FRI DEC 02 2016

NOTE: "FAIR" INDICATES FEW OR NO CLOUDS BELOW 12,000 FEET WITH NO
SIGNIFICANT WEATHER AND/OR OBSTRUCTIONS TO VISIBILITY.

* THESE STATIONS ARE NOT UNDER NWS QUALITY CONTROL. THEY ALSO MAY NOT
  REPORT WEATHER SUCH AS PRECIPITATION OR FOG.

ILZ005-006-012>014-019>023-022200-
NORTHEAST ILLINOIS

CITY           SKY/WX    TMP DP  RH WIND       PRES   REMARKS
OHARE          CLOUDY    38  27  64 NW12      30.20R
MIDWAY         CLOUDY    40  27  59 NW9       30.21R
AURORA         LGT RAIN  38  32  79 NW12      30.22R
LANSING*       CLOUDY    38  34  85 W6        30.21S
JOLIET*        CLOUDY    40  32  73 NW5       30.23R
WAUKEGAN       CLOUDY    35  24  64 N9        30.21R WCI  28
DUPAGE AIRPORT CLOUDY    38  27  64 NW9       30.20R
WHEELING       CLOUDY    37  26  64 NW7       30.22R
KANKAKEE*      CLOUDY    40  33  77 W10       30.23R
MORRIS*        CLOUDY    37  34  87 W5        30.23R
LEWIS AIRPORT* CLOUDY    38  34  84 NW9       30.22R
NORTHERLY ISL    N/A     39  27  62 NW9         N/A
$$

WIZ051-052-058>065-066-070>072-022200-
SOUTHEAST WISCONSIN

CITY           SKY/WX    TMP DP  RH WIND       PRES   REMARKS
MILWAUKEE      CLOUDY    36  23  59 NW10      30.21R
KENOSHA*       CLOUDY    35  24  64 NW9       30.22R WCI  28
RACINE*        CLOUDY    35  23  61 N9        30.23R WCI  28
BURLINGTON     CLOUDY    33  24  69 NW6       30.22R WCI  28
WAUKESHA       CLOUDY    32  23  69 W8        30.21R WCI  25
WEST BEND      CLOUDY    32  27  80 NW7       30.20R WCI  26
$$

INZ001>003-010>013-019-020-022200-
NORTHWEST INDIANA

CITY           SKY/WX    TMP DP  RH WIND       PRES   REMARKS
GARY*          CLOUDY    41  32  70 W10       30.21R
MICHIGAN CITY* NOT AVBL
RENSSELAER*    NOT AVBL
VALPARAISO     CLOUDY    40  30  67 NW6       30.21R
$$

LMZ740>746-022200-
SOUTHERN LAKE MICHIGAN

STATION/POSITION TIME  SKY/WX   TEMP WIND        PRES    VSBY
                                AIR  DIR/SP/G
                 (UTC)          (F)  (DEG/KT/KT) (MB)    (MI)
HARRISON CRIB    2040            39  330/ 12/ 14   N/A
BURNHAM HARBOR   2100            39  270/  8/ 11   N/A
CALUMET HARBOR   2030            40  330/  2/  5 1022.1R
BURNS HARBOR     2040            40  320/ 10/ 13 1023.0R
MICHIGAN CITY    2040            39  300/ 13/ 17   N/A
$$

ABBREVIATIONS USED IN REMARKS
   TC - TEMPERATURE IN CELSIUS
  WCI - WIND CHILL INDEX
   HX - HEAT INDEX
  VSB - VISIBILITY
$$




USA.gov is the U.S. government's official web portal to all federal, state and local government web resources and services.